{"data":{"norad_id":45568,"intl_designator":"2020-025AP","name":"STARLINK-1363","alt_names":[],"object_type":"PAYLOAD","status":"ACTIVE","operator":null,"country":"US","launch_date":"2020-04-22","launch_site_code":"AFETR","launch_vehicle":null,"mission":null,"orbit_class":"UNKNOWN","rcs_meters":null,"size_class":null,"mass_kg":null,"dimensions":null,"purposes":["comms"],"wikipedia_slug":null,"has_3d_model":false,"image_url":null,"decayed_at":null,"tle_current":{"epoch":"2026-05-25T00:32:33.861696Z","epoch_age_seconds":70587,"freshness":"FRESH","line1":"1 45568U 20025AP  26145.02261414  .00692088  26960-3  69156-3 0  9994","line2":"2 45568  53.0285   9.0940 0006769 253.9508 106.0780 16.10527140338198","mean_motion":16.1052714,"eccentricity":0.0006769,"inclination_deg":53.0285,"raan_deg":9.094,"arg_perigee_deg":253.9508,"mean_anomaly_deg":106.078,"bstar":0.00069156,"rev_number":33819,"period_min":89.41171894812,"perigee_km":240.9141316341,"apogee_km":249.88107277856,"semimajor_km":6623.5346022063,"source":"CELESTRAK","updated_at":"2026-05-25T13:38:16.423464Z"}}}